Regional Weather Roundup
Issued by NWS

Home | Current Version | Previous Version | Text Only | Print | Product List | Glossary Off
Versions: 1 2 3 4 5 6 7 8 9 10 11 12 13 14 15 16 17 18 19 20 21 22 23 24 25 26 27 28 29 30 31 32 33 34 35 36 37 38 39 40 41 42 43 44 45 46 47 48 49 50

000
ASUS43 KOAX 191510
RWRNE

WEATHER ROUNDUP FOR NEBRASKA
NATIONAL WEATHER SERVICE OMAHA NE
1000 AM CDT FRI SEP 19 2014

NOTES: SATELLITE DATA IS BEING USED TO AUGMENT CLOUD COVER ABOVE
       12000 FEET.
       "FAIR" INDICATES FEW OR NO CLOUDS BELOW 12,000 FEET WITH NO
       SIGNIFICANT WEATHER AND/OR OBSTRUCTIONS TO VISIBILITY.

  * THESE STATIONS DO NOT REPORT WEATHER SUCH AS RAIN...SNOW OR FOG.

NEZ001>004-019>022-054>056-191600-
NEBRASKA PANHANDLE

CITY           SKY/WX    TMP DP  RH WIND       PRES   REMARKS
SCOTTSBLUFF    SUNNY     68  52  56 NW8       29.93F
ALLIANCE       SUNNY     66  57  72 W10       29.90R
CHADRON        MOSUNNY   70  56  61 S7        29.85F
KIMBALL        PTSUNNY   65  49  54 NW10      30.00R
SIDNEY         MOSUNNY   69  49  48 NW16      29.96R
$$

NEZ057>060-069>072-079>082-191600-
SOUTHWEST NEBRASKA

CITY           SKY/WX    TMP DP  RH WIND       PRES   REMARKS
NORTH PLATTE   SUNNY     69  61  75 CALM      29.88R
IMPERIAL       SUNNY     70  59  68 SW13      29.90S
LEXINGTON      SUNNY     71  65  83 S12       29.88S
MCCOOK         SUNNY     69  64  84 S5        29.90F
OGALLALA       SUNNY     62  60  93 S5        29.91R
$$

NEZ005>010-023>029-035>040-094-191600-
NORTH CENTRAL NEBRASKA

CITY           SKY/WX    TMP DP  RH WIND       PRES   REMARKS
VALENTINE      MOSUNNY   70  60  70 SW13      29.79R
AINSWORTH      SUNNY     69  59  71 SW10      29.79F
BROKEN BOW     SUNNY     70  62  76 SW10      29.87R
O`NEILL        SUNNY     72  65  77 SW15      29.80S
ORD            SUNNY     69  62  78 SW10      29.85R
THEDFORD       SUNNY     66  61  83 S9        29.86F
$$

NEZ041-046>049-061>064-073>077-083>087-191600-
SOUTH CENTRAL NEBRASKA

CITY           SKY/WX    TMP DP  RH WIND       PRES   REMARKS
GRAND ISLAND   SUNNY     72  63  73 S13G22    29.89S
AURORA         SUNNY     70  64  82 S15G21    29.90S
HASTINGS       SUNNY     71  61  70 S12       29.91S
HEBRON         SUNNY     71  63  74 S12       29.94S
HOLDREGE       SUNNY     69  62  79 S12G18    29.91S
KEARNEY *      SUNNY     70  63  78 S17       29.90S
YORK           SUNNY     68  64  88 S13G20    29.91F
$$

NEZ011>018-030>034-042>045-191600-
NORTHEAST NEBRASKA

CITY           SKY/WX    TMP DP  RH WIND       PRES   REMARKS
NORFOLK        MOSUNNY   71  64  78 S13G22    29.84F
ALBION         MOSUNNY   69  62  79 S16G22    29.86S
BLAIR          CLOUDY    68  64  84 S15G22    29.91S
COLUMBUS *     SUNNY     72  63  73 SW15G23   29.89S
FREMONT        CLOUDY    68  64  85 S15       29.90S
TEKAMAH        CLOUDY    70  63  78 S21       29.89S
WAYNE          PTSUNNY   70  64  81 S17G25    29.84S
$$

NEZ050>053-065>068-078-088>093-191600-
SOUTHEAST NEBRASKA

CITY           SKY/WX    TMP DP  RH WIND       PRES   REMARKS
LINCOLN        PTSUNNY   70  64  81 S16       29.93S
OMAHA EPPLEY   CLOUDY    66  61  84 S16       29.92F HAZE
BEATRICE       MOSUNNY   71  65  79 S14G21    29.95S
FALLS CITY     CLOUDY    64  62  93 S14       29.98F
NEBRASKA CITY  CLOUDY    66  64  93 S13G20    29.97R
PLATTSMOUTH    CLOUDY    67  62  85 S12G17    29.94S
$$

NEZ044-045-051>053-067-191600-
OMAHA AREA

CITY           SKY/WX    TMP DP  RH WIND       PRES   REMARKS
OMAHA EPPLEY   CLOUDY    66  61  84 S16       29.92F HAZE
BLAIR          CLOUDY    68  64  84 S15G22    29.91S
FREMONT        CLOUDY    68  64  85 S15       29.90S
MILLARD        CLOUDY    69  64  84 S12       29.92S
PLATTSMOUTH    CLOUDY    67  62  85 S12G17    29.94S
WAHOO          CLOUDY    69  63  81 S15G24    29.91S
$$


USA.gov is the U.S. government's official web portal to all federal, state and local government web resources and services.